STARLINK-33821, 63859

Orbit data source: Space-Track

STARLINK-33821, 63859 is a payload satellite owned by SpaceX/Seattle (US) in LEO that was launched on Wed, 07 May 2025 UTC via an FALCON 9 launch vehicle from the Air Force Eastern Test Range (AFETR). Payload-class satellites include a variety of spacecraft equipped with specific instruments for various scientific and technological missions. These include communications satellites like Starlink; space stations such as the ISS; scientific satellites like the Hubble; Earth observation satellites from companies like Planet Labs, Umbra, and HawkEye 360; GPS; miniature CubeSats for education and research; and military/defense satellites.

Loading next visibility...
Identifier
63859, 2025-093Z
Orbit
LEO
Country
Flag of USUS
Related business
Manufacturer
SpaceX/Seattle
Mission
Operational Commercial Communications
Bus & Motor
STARLINK V2MO, Unknown motor
Mass
575 kg wet, ~530 kg dry
Launch date (UTC)
2025-05-07 (7 months ago)
Launch vehicle
FALCON 9
Launch site
Air Force Eastern Test Range (AFETR)
Object type
Payload
Rocket body
Debris
Shape & HBR
Box + 2 Pan, 17.7 m
Radar Cross Section
36.964 m², Large (>1 m²)

Expand to show TLE details & history
Last TLE update: 6 hours ago

TLE from 6 hours ago
0 STARLINK-33821
1 63859U 25093Z   25349.95267521  .00015087  00000-0  55632-3 0  9995
2 63859  42.9988 190.9387 0000188 299.1187  60.9646 15.27598991 35144
Epoch: 2025-12-15T22:51Z
TLE epoch observation values (Epoch: 2025-12-15T22:51:51.138Z)
Latitude
0.00001°
Longitude
123.13178°
Altitude
482.705 km
Speed
7.626 km/s
True Right ascension
12h 43m 45s
True Declination
0° 00' 00"
Sunlit
Object was in daylight at epoch
Visualization orbit readout
Latitude
Unknown
Longitude
Unknown
Altitude
Unknown
Speed
Unknown
Apparent Right ascension
Unknown
Apparent Declination
Unknown
Sunlit
N/A
Visualization observer readout
Local Sidereal Time
03:10:36
Azimuth
Unknown
Elevation
Unknown
Doppler factor
Unknown
Orbital elements
Apogee altitude
485.067 km
Perigee altitude
484.809 km
Semi-major axis
6,863.075 km
Eccentricity
0.00002
Inclination
42.9988°
RAAN
190.9387°
Arg. of periapsis
299.1187°
True anomaly
60.96648°
Mean anomaly
60.9646°
Eccentric anomaly
60.96554°
Mean motion
3.81738 °/min
Orbital period
94.31 mins
BSTAR
0.00055632
Loading maneuver chart data...
Computing Atmospheric mass density...
Loading historical data...
Loading historical data...
Loading historical data...
Loading historical data...
Loading historical data...
Loading historical data...
Loading historical data...

Documentation

Showing up to 5 results
|